Wind_Speed
38 38 38 38 39 40 41 43 43 41 42 43 41 40 39 39 39 38 37 38 38 39 39 39 39 39 39 39 40 40 41 41 41 41 42 43 43 44 45 45 46 46 46
41 41 41 41 41 42 43 44 45 45 45 45 44 43 42 40 39 39 38 38 39 39 39 39 40 40 39 40 40 41 41 42 43 43 44 45 45 45 46 47 48 49 49
45 45 45 46 45 45 46 46 47 47 47 47 47 45 44 42 40 40 40 40 40 40 40 40 41 40 40 41 41 41 41 42 44 45 46 47 48 48 47 48 49 50 51
49 50 50 50 50 49 49 49 49 50 50 50 48 47 45 44 42 41 41 41 41 41 41 41 41 41 41 42 42 42 42 43 44 46 48 49 50 50 50 50 51 51 52
53 54 54 54 54 53 53 52 51 51 52 51 49 49 48 46 44 43 42 41 41 42 42 42 42 42 42 42 42 43 43 44 45 47 48 49 51 52 52 52 52 53 54
55 55 56 56 56 56 55 54 54 53 52 51 50 50 49 48 46 44 43 42 42 42 42 42 42 42 42 42 43 43 44 45 47 48 49 50 51 53 53 54 54 54 55
55 55 56 57 57 57 57 57 55 54 53 51 50 50 50 48 47 45 44 43 42 42 41 42 42 42 42 42 43 44 45 47 48 49 50 51 52 54 55 56 57 57 57
56 56 55 55 56 57 58 57 56 54 53 52 50 50 49 48 47 46 45 44 42 42 42 41 41 41 41 41 43 44 46 48 49 50 51 52 53 55 56 58 60 61 61
55 55 54 53 53 55 56 57 56 55 53 52 51 49 48 47 46 45 44 43 42 42 41 41 41 41 41 42 44 45 47 48 50 51 52 53 54 56 58 60 62 65 66
51 51 51 51 50 51 54 55 55 54 53 52 50 48 47 46 45 45 44 43 42 41 40 40 40 40 41 43 44 46 47 49 50 51 52 54 56 58 60 62 65 67 69
50 48 47 47 47 48 50 52 53 53 52 50 48 46 45 45 44 44 43 42 41 40 40 40 40 41 42 43 45 47 48 50 51 52 54 56 58 60 62 65 67 68 70
48 46 44 43 44 44 46 48 50 51 49 47 45 44 44 43 43 42 42 41 40 39 39 39 40 41 43 44 46 48 49 51 52 54 56 58 60 63 65 67 68 69 71
45 43 40 39 39 40 42 44 46 46 45 43 43 42 42 42 41 41 40 39 39 38 39 40 41 42 44 46 47 49 50 52 54 56 58 60 63 65 67 68 69 71 73
39 37 35 33 33 34 37 39 40 41 40 41 41 40 40 40 39 39 37 37 37 38 39 40 42 43 45 47 48 50 51 53 55 58 60 63 64 66 67 69 71 73 76
28 26 25 25 26 28 31 34 36 37 37 38 38 37 37 36 36 35 35 35 36 38 39 41 42 44 46 48 49 50 52 55 57 60 62 64 65 67 69 71 73 76 80
17 15 14 16 19 23 27 30 32 33 34 34 34 33 33 32 32 33 33 34 36 37 39 41 43 44 46 47 49 51 54 56 59 61 63 65 66 68 70 73 77 82 86
5 3 7 12 16 19 24 27 29 30 30 29 29 29 29 29 29 30 31 33 35 37 40 42 44 45 46 48 50 53 55 58 60 62 63 65 67 70 73 77 82 87 91
8 10 11 13 15 18 22 24 25 25 25 25 24 24 25 25 27 28 30 33 35 38 40 41 43 44 47 49 52 54 56 59 61 62 64 66 70 74 78 82 86 89 91
16 16 16 17 18 19 19 20 20 20 19 19 19 20 21 23 26 28 31 34 36 37 39 40 43 45 48 50 53 55 57 58 60 63 66 70 74 78 83 87 89 88 86
17 18 18 18 18 18 17 16 15 14 14 14 15 18 21 24 26 28 30 32 35 36 39 41 44 46 49 51 54 55 57 58 61 65 70 74 78 83 88 89 87 81 73
15 15 16 16 16 16 15 13 12 11 12 14 17 19 21 24 26 27 30 32 34 37 39 42 45 47 50 52 53 55 58 61 64 69 73 78 83 87 88 84 76 67 58
13 13 13 13 13 12 12 12 12 13 14 16 17 19 21 23 25 27 30 32 34 37 40 43 45 48 50 51 54 57 61 65 69 73 77 82 85 85 79 70 60 53 48
9 10 10 10 10 9 9 10 10 11 12 14 16 18 20 23 25 27 30 32 35 38 41 43 45 47 50 52 56 60 65 69 73 77 80 82 80 73 63 54 48 43 40
7 6 6 5 5 5 5 6 7 8 10 13 15 17 20 22 25 28 31 33 36 38 40 42 44 48 51 55 60 65 69 72 75 77 78 75 67 57 48 42 38 37 37
5 4 4 3 2 1 2 3 6 8 10 13 16 18 21 24 27 29 32 34 36 37 40 43 46 50 54 60 64 68 70 72 74 74 70 61 51 42 38 35 34 35 36
3 3 2 1 1 2 4 6 8 11 13 15 18 20 23 25 28 30 32 34 36 38 42 45 50 54 59 64 67 69 71 72 70 65 56 46 38 33 31 32 33 35 35
Wind_Direction
258 259 259 259 259 259 259 259 260 260 261 263 264 266 266 267 267 268 269 270 271 273 275 277 278 279 279 278 277 277 276 275 277 279 281 283 285 287 288 289 290 290 291
258 259 260 260 261 261 260 259 259 258 258 260 261 261 263 265 267 267 269 270 272 273 275 278 279 279 279 280 279 279 278 278 279 281 282 284 286 288 290 290 291 291 292
259 260 260 261 261 262 261 260 258 257 256 256 257 258 261 263 265 267 268 269 270 272 275 278 280 280 280 280 280 280 279 280 281 282 285 286 287 288 289 290 291 292 294
262 262 261 261 262 261 261 260 258 256 255 255 255 255 257 260 262 263 265 267 270 273 275 278 280 280 280 281 282 282 281 282 283 285 286 288 289 290 290 291 291 292 293
263 263 262 262 261 260 259 258 258 256 254 254 253 252 253 256 258 261 263 266 268 271 274 277 279 280 280 281 282 283 283 284 285 286 288 289 290 291 291 292 293 294 295
266 264 262 261 260 259 258 257 256 255 254 252 251 250 251 253 255 258 260 263 266 269 273 276 278 280 280 282 283 284 285 286 288 288 289 290 291 291 292 293 293 295 296
271 268 265 262 259 258 256 255 254 253 252 250 249 248 249 250 252 255 258 261 264 268 271 274 277 279 281 283 285 286 287 289 290 290 291 292 292 293 294 295 296 297 298
274 271 269 265 260 256 254 252 251 250 248 247 246 246 246 248 250 253 256 259 262 265 269 273 277 279 281 283 286 288 289 290 291 292 292 293 294 295 296 297 298 298 299
277 274 270 267 263 257 252 249 248 247 245 244 243 243 244 245 248 251 254 257 260 264 268 273 276 280 282 285 287 289 290 291 292 293 293 294 295 297 298 299 299 300 300
282 277 272 267 262 255 249 246 244 242 241 240 241 241 241 243 246 249 252 256 259 263 268 273 277 280 283 286 288 289 291 292 293 294 294 296 297 298 299 300 301 302 302
286 281 275 267 260 253 246 242 240 238 237 237 238 238 239 241 244 248 251 255 259 263 268 273 277 281 285 287 289 290 291 293 294 294 296 297 299 299 300 301 302 302 303
285 281 274 265 257 251 243 237 234 233 232 233 233 235 237 239 243 247 251 255 259 264 269 275 279 282 285 288 289 291 292 293 294 296 297 299 300 301 301 302 303 303 303
283 278 271 262 253 246 239 232 228 227 226 227 228 231 234 238 243 247 251 255 260 266 271 276 280 283 286 288 290 291 293 294 295 297 298 300 301 302 303 303 304 304 305
283 276 267 258 249 240 232 224 221 220 220 221 224 228 232 237 242 247 252 257 262 268 273 278 282 284 287 289 290 292 293 295 297 298 300 301 302 303 304 304 305 305 305
287 277 263 250 240 231 222 215 212 212 213 216 221 226 231 237 242 248 253 259 265 271 276 280 283 286 287 289 291 293 294 296 298 300 301 302 303 304 305 305 306 306 306
291 271 247 227 220 214 208 205 203 205 208 213 219 225 231 237 243 249 256 262 269 274 278 281 284 285 287 289 292 294 296 298 299 301 302 303 304 305 306 307 308 308 308
327 222 195 191 189 190 191 191 194 198 204 210 217 225 231 238 245 253 260 266 272 277 280 281 284 286 289 291 293 296 298 300 301 302 303 304 305 306 307 308 309 309 309
76 105 126 143 156 166 173 178 185 193 200 208 217 226 234 242 250 258 264 270 275 277 279 282 285 288 291 293 296 298 300 301 303 304 305 306 307 308 308 309 309 309 308
81 97 111 122 134 146 156 167 177 186 196 206 217 228 239 249 256 262 268 272 274 278 281 285 288 291 293 296 298 300 302 303 305 306 306 307 308 308 309 309 310 309 308
82 93 105 115 124 134 144 155 166 179 193 208 223 235 245 252 258 264 269 274 278 282 285 289 291 294 296 299 301 303 304 305 306 307 308 309 309 310 310 310 310 309 310
81 90 102 112 122 131 140 149 160 179 199 217 231 239 247 256 263 270 274 278 282 286 290 293 295 298 300 302 304 305 306 307 308 308 309 309 310 311 311 311 311 311 312
83 93 103 112 122 134 148 162 179 195 210 224 238 248 257 264 270 276 280 285 288 292 295 297 299 302 303 305 306 307 308 309 309 310 310 311 312 313 313 313 313 314 315
83 93 106 119 133 147 163 179 195 213 228 241 252 260 268 274 279 283 288 291 294 297 299 301 303 305 306 308 309 309 310 311 311 311 312 313 314 315 315 315 317 318 318
67 82 99 114 136 162 184 203 223 238 250 260 268 274 279 284 288 291 294 296 299 301 303 305 307 308 309 310 311 311 312 312 313 313 315 315 316 316 317 319 320 321 322
60 71 81 88 99 146 240 258 267 273 277 280 284 287 289 292 294 297 299 301 303 305 307 308 310 311 312 312 313 313 313 313 314 315 316 317 318 319 321 323 325 325 324
45 52 56 39 346 310 294 288 287 287 288 290 292 294 296 298 300 302 304 306 308 310 311 312 313 313 314 314 315 314 315 315 317 318 319 320 321 323 326 328 329 328 327
Height
5741 5743 5746 5748 5750 5751 5753 5754 5755 5758 5759 5760 5762 5763 5764 5764 5765 5767 5769 5769 5769 5769 5769 5769 5769 5768 5768 5767 5766 5765 5765 5764 5763 5762 5761 5760 5758 5756 5753 5751 5749 5746 5744
5732 5734 5736 5738 5740 5742 5743 5744 5745 5748 5750 5751 5753 5755 5755 5756 5758 5760 5761 5762 5762 5762 5761 5761 5761 5761 5760 5759 5758 5758 5756 5755 5754 5753 5752 5750 5749 5746 5743 5740 5737 5734 5732
5722 5723 5725 5727 5729 5731 5732 5734 5735 5737 5739 5741 5743 5745 5747 5748 5750 5752 5753 5754 5754 5754 5754 5754 5753 5753 5752 5751 5750 5749 5748 5747 5745 5743 5742 5740 5738 5736 5734 5730 5727 5723 5719
5710 5711 5713 5715 5717 5719 5721 5722 5724 5726 5728 5730 5733 5736 5738 5740 5742 5743 5744 5745 5746 5746 5746 5746 5745 5745 5744 5743 5742 5740 5739 5738 5736 5734 5731 5729 5726 5723 5722 5719 5715 5712 5708
5696 5698 5699 5701 5703 5705 5707 5710 5712 5714 5716 5719 5724 5727 5729 5731 5733 5735 5736 5737 5738 5738 5738 5738 5737 5737 5736 5735 5733 5732 5730 5728 5726 5724 5721 5718 5715 5711 5709 5707 5703 5699 5694
5681 5682 5684 5686 5688 5690 5693 5696 5698 5701 5704 5708 5712 5716 5719 5722 5724 5726 5727 5729 5730 5730 5730 5730 5729 5728 5727 5726 5724 5722 5721 5718 5716 5713 5710 5707 5704 5700 5696 5694 5691 5687 5683
5664 5665 5667 5669 5672 5674 5677 5681 5684 5688 5691 5696 5701 5704 5708 5712 5715 5717 5719 5720 5721 5722 5722 5722 5721 5720 5719 5717 5715 5713 5711 5709 5706 5703 5699 5695 5691 5687 5683 5679 5675 5673 5669
5647 5648 5649 5651 5654 5657 5661 5665 5669 5674 5678 5683 5688 5693 5698 5702 5705 5708 5710 5711 5713 5713 5713 5713 5713 5712 5710 5708 5706 5704 5701 5699 5695 5692 5688 5684 5679 5675 5670 5665 5660 5656 5653
5629 5629 5630 5633 5636 5639 5644 5649 5654 5659 5664 5670 5676 5681 5687 5691 5695 5698 5700 5702 5704 5704 5705 5705 5704 5703 5702 5700 5697 5695 5692 5688 5685 5681 5676 5672 5667 5662 5656 5651 5645 5639 5635
5611 5611 5612 5614 5617 5621 5626 5632 5638 5644 5651 5658 5665 5671 5676 5681 5685 5688 5691 5694 5695 5696 5696 5696 5696 5694 5693 5690 5688 5685 5681 5678 5674 5669 5665 5660 5655 5649 5643 5637 5630 5622 5616
5595 5594 5595 5597 5600 5603 5609 5615 5622 5630 5638 5647 5655 5661 5667 5672 5676 5680 5683 5685 5687 5688 5688 5688 5687 5686 5684 5681 5678 5675 5671 5667 5662 5658 5653 5647 5641 5635 5629 5622 5615 5607 5598
5580 5577 5578 5580 5583 5587 5593 5600 5608 5618 5628 5637 5645 5652 5658 5663 5667 5671 5674 5677 5679 5680 5680 5680 5679 5677 5674 5671 5668 5664 5660 5655 5651 5645 5640 5634 5628 5621 5614 5606 5598 5590 5581
5565 5563 5563 5565 5568 5573 5579 5587 5597 5608 5619 5628 5636 5643 5649 5655 5659 5663 5666 5669 5671 5672 5672 5671 5670 5667 5665 5661 5657 5653 5649 5644 5639 5633 5627 5620 5613 5606 5598 5590 5582 5573 5564
5552 5549 5550 5552 5556 5561 5568 5578 5589 5601 5611 5620 5628 5635 5642 5647 5652 5656 5659 5661 5663 5664 5663 5662 5661 5658 5655 5651 5647 5642 5637 5632 5626 5620 5613 5606 5599 5591 5583 5574 5565 5555 5546
5541 5539 5540 5543 5548 5554 5562 5572 5584 5595 5604 5613 5622 5629 5636 5641 5646 5650 5652 5654 5655 5656 5655 5653 5651 5648 5644 5640 5636 5631 5626 5620 5613 5606 5599 5591 5583 5575 5566 5557 5547 5537 5526
5535 5534 5535 5539 5544 5551 5560 5570 5580 5591 5600 5609 5617 5625 5631 5636 5640 5643 5646 5647 5648 5647 5646 5644 5642 5638 5634 5629 5625 5620 5614 5607 5600 5593 5585 5576 5568 5559 5550 5540 5528 5516 5504
5535 5534 5536 5539 5545 5552 5560 5570 5580 5590 5599 5607 5615 5621 5626 5631 5635 5637 5639 5640 5640 5639 5637 5635 5632 5628 5623 5618 5613 5608 5601 5594 5586 5578 5570 5561 5552 5542 5533 5522 5510 5496 5480
5540 5540 5541 5545 5550 5557 5564 5573 5582 5590 5598 5606 5612 5618 5623 5627 5630 5632 5633 5633 5632 5631 5628 5625 5621 5617 5613 5607 5601 5595 5588 5581 5572 5564 5555 5546 5536 5525 5514 5504 5492 5477 5461
5549 5548 5549 5553 5557 5563 5570 5578 5585 5592 5599 5605 5611 5616 5619 5622 5624 5626 5626 5626 5624 5622 5619 5615 5611 5607 5602 5596 5589 5583 5575 5567 5559 5549 5539 5529 5519 5508 5497 5485 5472 5458 5442
5559 5558 5559 5562 5566 5571 5576 5582 5588 5594 5600 5605 5609 5613 5616 5618 5619 5620 5619 5618 5616 5613 5609 5605 5601 5596 5590 5584 5577 5570 5562 5555 5546 5536 5524 5513 5501 5489 5475 5462 5449 5437 5423
5567 5567 5568 5570 5573 5577 5581 5586 5591 5596 5600 5605 5608 5611 5612 5613 5613 5613 5612 5610 5607 5604 5600 5596 5590 5585 5579 5572 5564 5556 5548 5540 5531 5520 5508 5496 5482 5469 5454 5440 5427 5416 5406
5575 5575 5576 5577 5579 5582 5585 5589 5593 5597 5600 5603 5606 5607 5608 5608 5607 5606 5604 5601 5598 5594 5590 5585 5579 5573 5567 5560 5552 5543 5534 5524 5514 5503 5490 5477 5463 5448 5434 5421 5410 5401 5393
5581 5581 5582 5583 5585 5587 5590 5592 5595 5598 5600 5602 5603 5603 5603 5602 5601 5599 5596 5593 5590 5585 5581 5575 5569 5562 5555 5547 5539 5529 5519 5508 5496 5484 5470 5456 5443 5429 5417 5407 5398 5391 5383
5585 5586 5586 5587 5589 5590 5592 5594 5596 5597 5598 5599 5599 5598 5597 5596 5594 5591 5589 5585 5581 5576 5571 5565 5559 5552 5544 5535 5526 5515 5504 5492 5479 5465 5452 5438 5425 5415 5406 5398 5390 5383 5376
5588 5589 5589 5590 5590 5591 5592 5593 5594 5595 5595 5595 5594 5593 5592 5590 5587 5584 5581 5577 5572 5567 5561 5555 5548 5540 5532 5522 5511 5500 5488 5475 5463 5449 5436 5424 5414 5405 5397 5390 5384 5377 5370
5590 5590 5590 5590 5591 5591 5591 5592 5592 5592 5591 5590 5589 5588 5585 5583 5580 5576 5573 5568 5563 5557 5551 5544 5536 5527 5518 5507 5495 5483 5471 5458 5445 5433 5422 5413 5405 5398 5392 5385 5378 5371 5363